Total_Precipitation_Accumulation
1.66 1.71 1.65 1.58 1.50 1.35 1.26 1.25 1.26 1.10 0.94 0.71 0.54 0.46 0.47 0.44 0.46 0.36 0.32 0.34 0.28 0.23 0.20 0.18 0.18 0.18 0.16 0.14 0.12 0.11 0.12 0.11 0.12 0.16 0.21 0.28 0.34 0.37
1.64 1.72 1.73 1.74 1.72 1.60 1.45 1.35 1.22 1.17 1.07 0.86 0.63 0.47 0.52 0.49 0.49 0.35 0.32 0.38 0.33 0.30 0.25 0.23 0.21 0.21 0.20 0.15 0.11 0.08 0.06 0.06 0.07 0.11 0.23 0.45 0.55 0.53
1.48 1.53 1.63 1.72 1.81 1.79 1.74 1.58 1.41 1.32 1.24 1.06 0.81 0.56 0.54 0.56 0.52 0.40 0.34 0.31 0.31 0.31 0.28 0.26 0.24 0.22 0.23 0.22 0.18 0.14 0.10 0.08 0.07 0.09 0.15 0.30 0.59 0.69
1.28 1.26 1.34 1.43 1.54 1.66 1.72 1.67 1.59 1.44 1.36 1.33 1.14 0.83 0.63 0.58 0.55 0.53 0.46 0.40 0.39 0.42 0.38 0.35 0.31 0.27 0.26 0.24 0.22 0.19 0.15 0.12 0.09 0.09 0.11 0.14 0.22 0.37
1.06 1.04 1.06 1.13 1.24 1.35 1.43 1.49 1.55 1.56 1.50 1.41 1.31 1.13 0.86 0.71 0.66 0.62 0.58 0.61 0.51 0.47 0.46 0.43 0.40 0.37 0.36 0.33 0.29 0.25 0.20 0.17 0.15 0.12 0.10 0.09 0.11 0.16
0.81 0.83 0.86 0.86 0.90 1.02 1.18 1.34 1.47 1.54 1.58 1.54 1.38 1.17 1.03 0.93 0.80 0.75 0.78 0.75 0.69 0.60 0.55 0.51 0.51 0.46 0.42 0.37 0.34 0.30 0.27 0.25 0.23 0.20 0.16 0.13 0.10 0.09
0.64 0.56 0.59 0.65 0.64 0.67 0.74 0.99 1.19 1.33 1.43 1.47 1.38 1.17 1.00 0.93 0.84 0.83 0.84 0.85 0.80 0.76 0.71 0.61 0.56 0.51 0.48 0.45 0.38 0.31 0.26 0.25 0.24 0.23 0.21 0.19 0.18 0.16
0.56 0.51 0.51 0.56 0.50 0.43 0.44 0.61 0.86 1.01 1.15 1.27 1.30 1.17 1.03 0.93 0.91 0.89 0.83 0.78 0.75 0.68 0.61 0.64 0.60 0.58 0.55 0.51 0.51 0.46 0.40 0.35 0.30 0.27 0.27 0.27 0.28 0.27
0.61 0.62 0.58 0.55 0.62 0.51 0.43 0.45 0.53 0.64 0.76 0.94 1.10 1.13 1.18 1.08 0.92 0.82 0.78 0.77 0.75 0.72 0.61 0.57 0.54 0.51 0.50 0.49 0.52 0.50 0.48 0.45 0.40 0.36 0.34 0.33 0.33 0.33
0.68 0.72 0.73 0.69 0.65 0.70 0.63 0.65 0.60 0.55 0.63 0.53 0.66 0.95 1.03 1.04 0.96 0.89 0.86 0.78 0.70 0.67 0.59 0.57 0.56 0.50 0.43 0.40 0.42 0.40 0.38 0.38 0.40 0.43 0.44 0.44 0.42 0.39
0.66 0.73 0.75 0.68 0.73 0.77 0.83 0.89 0.82 0.68 0.80 0.81 0.72 0.76 0.80 0.79 0.80 0.81 0.82 0.76 0.69 0.63 0.49 0.42 0.43 0.43 0.42 0.42 0.38 0.37 0.34 0.32 0.31 0.28 0.26 0.27 0.27 0.29
0.68 0.74 0.88 0.78 0.74 0.72 0.73 0.83 0.84 0.73 0.61 0.64 0.60 0.51 0.44 0.48 0.57 0.61 0.75 0.83 0.79 0.67 0.52 0.41 0.42 0.40 0.39 0.35 0.30 0.30 0.29 0.28 0.27 0.24 0.22 0.18 0.15 0.15
0.81 0.86 0.83 0.87 0.67 0.63 0.63 0.61 0.66 0.65 0.62 0.65 0.69 0.61 0.52 0.48 0.47 0.44 0.49 0.62 0.71 0.66 0.54 0.43 0.39 0.37 0.33 0.28 0.27 0.27 0.28 0.26 0.22 0.21 0.20 0.19 0.17 0.15
0.73 0.73 0.70 0.76 0.58 0.49 0.45 0.48 0.51 0.48 0.53 0.65 0.66 0.63 0.61 0.58 0.52 0.45 0.42 0.44 0.50 0.54 0.50 0.43 0.38 0.33 0.29 0.25 0.25 0.27 0.26 0.22 0.18 0.17 0.16 0.18 0.17 0.17
0.49 0.57 0.56 0.53 0.45 0.37 0.40 0.41 0.41 0.42 0.47 0.51 0.54 0.52 0.49 0.50 0.50 0.47 0.43 0.39 0.35 0.30 0.28 0.30 0.35 0.36 0.32 0.27 0.23 0.25 0.26 0.23 0.19 0.18 0.17 0.15 0.14 0.14
0.39 0.39 0.38 0.37 0.37 0.37 0.37 0.37 0.39 0.42 0.44 0.42 0.42 0.45 0.45 0.47 0.47 0.47 0.47 0.47 0.45 0.41 0.36 0.33 0.33 0.36 0.37 0.34 0.29 0.24 0.25 0.27 0.24 0.22 0.20 0.18 0.16 0.16
0.48 0.40 0.36 0.36 0.37 0.42 0.41 0.37 0.38 0.41 0.42 0.39 0.39 0.42 0.40 0.43 0.45 0.41 0.40 0.41 0.42 0.40 0.40 0.39 0.37 0.37 0.37 0.38 0.39 0.38 0.37 0.37 0.36 0.33 0.27 0.23 0.20 0.19
0.47 0.52 0.53 0.57 0.59 0.58 0.53 0.42 0.35 0.34 0.37 0.42 0.41 0.39 0.39 0.38 0.41 0.41 0.38 0.38 0.36 0.33 0.29 0.28 0.31 0.35 0.36 0.35 0.30 0.32 0.38 0.40 0.42 0.42 0.36 0.29 0.24 0.24
0.43 0.57 0.58 0.56 0.51 0.48 0.44 0.37 0.29 0.24 0.24 0.31 0.39 0.43 0.41 0.40 0.43 0.44 0.40 0.34 0.31 0.31 0.29 0.25 0.23 0.26 0.29 0.28 0.27 0.25 0.27 0.31 0.32 0.32 0.31 0.30 0.27 0.28
0.37 0.45 0.44 0.41 0.35 0.27 0.21 0.16 0.14 0.12 0.12 0.15 0.16 0.23 0.35 0.42 0.49 0.50 0.51 0.51 0.48 0.44 0.38 0.32 0.25 0.21 0.20 0.20 0.19 0.17 0.17 0.20 0.25 0.25 0.24 0.24 0.23 0.24
0.17 0.17 0.17 0.17 0.16 0.12 0.09 0.06 0.05 0.05 0.05 0.05 0.06 0.08 0.15 0.26 0.39 0.48 0.52 0.55 0.54 0.53 0.51 0.46 0.41 0.39 0.31 0.29 0.26 0.20 0.17 0.16 0.16 0.15 0.15 0.16 0.16 0.16
0.07 0.07 0.06 0.06 0.06 0.05 0.05 0.04 0.04 0.04 0.04 0.06 0.09 0.13 0.18 0.20 0.23 0.32 0.41 0.45 0.43 0.41 0.42 0.43 0.44 0.43 0.39 0.38 0.35 0.28 0.22 0.19 0.20 0.22 0.18 0.16 0.14 0.13
0.06 0.05 0.05 0.04 0.03 0.04 0.04 0.04 0.03 0.03 0.03 0.04 0.07 0.13 0.19 0.24 0.25 0.24 0.26 0.30 0.33 0.37 0.38 0.39 0.39 0.38 0.39 0.41 0.42 0.39 0.32 0.27 0.26 0.28 0.30 0.37 0.33 0.22